Date String (YYYY-MM-DD hh:mm:ss) UTC,Instrument flags,Ambient pressure (hPa),Sample flow (lpm),Bypass flow (lpm),Sample temperature (°C),Ambient temperature (°C),ASC tube jacket temperature (°C),LED temperature (°C),Box temperature (°C),Sample RH (%),Span deviation,Mass concentration (μg/m³),Mass concentration (μg/m³),Mass concentration (μg/m³)
DateTimeUTC,F1_M11,P_M11,Q1_M11,Q2_M11,T1_M11,T2_M11,T3_M11,T4_M11,T5_M11,U1_M11,ZSPAN_M11,X0_M11,X2_M11,X1_M11
2022-02-26 02:00:00,,0830.2,5.00,0.00,22.4,21.5,00.0,31.4,24.2,07.3,0000.7,0027.06,0017.56,0016.62
2022-02-26 02:01:00,,0830.2,5.00,0.00,22.4,21.5,00.0,31.4,24.2,07.3,0000.8,0026.26,0017.24,0016.31
2022-02-26 02:02:00,,0830.2,5.00,0.00,22.4,21.5,00.0,31.4,24.2,07.3,0000.9,0025.90,0016.91,0015.96
2022-02-26 02:03:00,,0830.3,5.00,0.00,22.4,21.5,00.0,31.4,24.2,07.2,0000.9,0025.56,0016.43,0015.54
2022-02-26 02:04:00,,0830.2,5.00,0.00,22.4,21.5,00.0,31.4,24.2,07.2,0001.3,0024.40,0016.00,0015.17
2022-02-26 02:05:00,,0830.3,5.00,0.00,22.4,21.5,00.0,31.4,24.2,07.2,0001.4,0024.41,0015.67,0014.90
2022-02-26 02:06:00,,0830.3,5.01,0.00,22.4,21.5,00.0,31.4,24.2,07.2,0001.2,0024.50,0015.35,0014.61
2022-02-26 02:07:00,,0830.3,5.01,0.00,22.4,21.6,00.0,31.4,24.2,07.2,0000.9,0024.12,0015.04,0014.30
2022-02-26 02:08:00,,0830.4,4.99,0.00,22.4,21.5,00.0,31.4,24.2,07.3,0000.7,0023.78,0014.81,0014.03
2022-02-26 02:09:00,,0830.4,5.00,0.00,22.4,21.6,00.0,31.4,24.2,07.3,0000.8,0021.97,0014.64,0013.87
2022-02-26 02:10:00,,0830.4,5.00,0.00,22.4,21.6,00.0,31.4,24.2,07.3,0000.8,0021.63,0014.55,0013.77
2022-02-26 02:11:00,,0830.4,5.00,0.00,22.4,21.6,00.0,31.4,24.2,07.3,0000.7,0022.44,0014.47,0013.70
2022-02-26 02:12:00,,0830.4,4.99,0.00,22.4,21.6,00.0,31.4,24.2,07.3,0000.8,0022.86,0014.43,0013.65
2022-02-26 02:13:00,,0830.4,5.00,0.00,22.3,21.6,00.0,31.4,24.1,07.3,0001.0,0023.17,0014.44,0013.64
2022-02-26 02:14:00,,0830.4,5.01,0.00,22.4,21.5,00.0,31.4,24.2,07.3,0001.0,0022.91,0014.49,0013.66
2022-02-26 02:15:00,,0830.4,5.00,0.00,22.3,21.5,00.0,31.4,24.1,07.3,0000.9,0023.58,0014.56,0013.69
2022-02-26 02:16:00,,0830.4,5.00,0.00,22.3,21.5,00.0,31.3,24.1,07.3,0000.9,0022.90,0014.60,0013.69
2022-02-26 02:17:00,,0830.4,5.00,0.00,22.3,21.5,00.0,31.4,24.1,07.3,0001.4,0022.99,0014.63,0013.68
2022-02-26 02:18:00,,0830.4,5.01,0.00,22.4,22.1,00.0,31.4,24.3,07.3,0001.5,0022.92,0014.59,0013.64
2022-02-26 02:19:00,,0830.4,5.00,0.00,22.6,22.7,00.0,31.4,24.5,07.2,0001.8,0022.80,0014.55,0013.61
2022-02-26 02:20:00,,0830.4,5.00,0.00,22.6,22.8,00.0,31.5,24.6,07.1,0001.8,0022.69,0014.52,0013.57
2022-02-26 02:21:00,,0830.4,5.01,0.00,22.7,22.7,00.0,31.5,24.6,07.1,0001.9,0022.54,0014.48,0013.52
2022-02-26 02:22:00,,0830.4,5.01,0.00,22.7,22.5,00.0,31.5,24.6,07.1,0001.9,0021.90,0014.43,0013.45
2022-02-26 02:23:00,,0830.4,4.98,0.00,22.7,22.4,00.0,31.5,24.5,07.1,0001.9,0021.38,0014.36,0013.36
2022-02-26 02:24:00,,0830.4,5.01,0.00,22.6,22.3,00.0,31.5,24.5,07.1,0001.7,0021.36,0014.28,0013.27
2022-02-26 02:25:00,,0830.4,5.00,0.00,22.6,22.2,00.0,31.5,24.5,07.1,0001.5,0021.79,0014.15,0013.16
2022-02-26 02:26:00,,0830.4,5.00,0.00,22.6,22.1,00.0,31.5,24.5,07.1,0001.1,0021.48,0014.06,0013.06
2022-02-26 02:27:00,,0830.4,5.00,0.00,22.6,22.0,00.0,31.5,24.4,07.0,0001.3,0020.98,0013.95,0012.95
2022-02-26 02:28:00,,0830.4,5.00,0.00,22.6,22.0,00.0,31.5,24.4,07.0,0000.8,0020.64,0013.88,0012.87
2022-02-26 02:29:00,,0830.6,5.00,0.00,22.6,21.9,00.0,31.5,24.3,07.0,0000.4,0020.40,0013.82,0012.82
2022-02-26 02:30:00,,0830.5,4.99,0.00,22.5,21.9,00.0,31.5,24.3,07.1,0000.3,0020.32,0013.83,0012.87
2022-02-26 02:31:00,,0830.6,4.99,0.00,22.5,21.8,00.0,31.5,24.3,07.2,-000.3,0020.50,0013.98,0013.03
2022-02-26 02:32:00,,0830.4,5.00,0.00,22.5,21.8,00.0,31.5,24.2,07.2,-000.8,0020.67,0014.10,0013.14
2022-02-26 02:33:00,,0830.4,5.00,0.00,22.4,21.7,00.0,31.5,24.1,07.2,-000.6,0020.87,0014.15,0013.20
2022-02-26 02:34:00,,0830.3,5.00,0.00,22.4,21.6,00.0,31.5,24.1,07.2,-000.8,0020.94,0014.19,0013.27
2022-02-26 02:35:00,,0830.3,5.00,0.00,22.4,21.6,00.0,31.5,24.1,07.2,-000.9,0020.83,0014.22,0013.34
2022-02-26 02:36:00,,0830.4,5.00,0.00,22.3,21.6,00.0,31.5,24.0,07.2,-000.8,0020.49,0014.24,0013.39
2022-02-26 02:37:00,,0830.4,5.00,0.00,22.3,21.5,00.0,31.4,24.0,07.2,-001.0,0020.78,0014.26,0013.41
2022-02-26 02:38:00,,0830.3,5.00,0.00,22.3,21.5,00.0,31.4,24.0,07.3,-001.1,0020.84,0014.29,0013.43
2022-02-26 02:39:00,,0830.5,5.00,0.00,22.3,21.5,00.0,31.4,24.0,07.3,-001.0,0020.98,0014.33,0013.51
2022-02-26 02:40:00,,0830.5,5.00,0.00,22.2,21.4,00.0,31.4,23.9,07.3,-000.5,0021.34,0014.53,0013.66
2022-02-26 02:41:00,,0830.4,5.00,0.00,22.2,21.4,00.0,31.4,23.9,07.4,-000.6,0021.71,0014.69,0013.79
2022-02-26 02:42:00,,0830.4,4.99,0.00,22.2,21.4,00.0,31.4,23.8,07.4,-000.3,0021.61,0014.62,0013.74
2022-02-26 02:43:00,,0830.4,5.01,0.00,22.2,21.9,00.0,31.4,24.0,07.4,0000.2,0021.55,0014.63,0013.76
2022-02-26 02:44:00,,0830.4,5.00,0.00,22.4,22.6,00.0,31.4,24.2,07.4,0000.2,0021.32,0014.71,0013.85
2022-02-26 02:45:00,,0830.4,5.00,0.00,22.5,23.0,00.0,31.4,24.4,07.3,0000.2,0021.36,0014.88,0014.03
2022-02-26 02:46:00,,0830.6,4.98,0.00,22.5,22.8,00.0,31.4,24.5,07.3,0000.3,0021.39,0015.10,0014.23
2022-02-26 02:47:00,,0830.3,5.02,0.00,22.5,22.6,00.0,31.4,24.4,07.3,0000.3,0021.62,0015.30,0014.43
2022-02-26 02:48:00,,0830.5,5.00,0.00,22.5,22.4,00.0,31.4,24.3,07.3,0000.4,0021.40,0015.53,0014.64
2022-02-26 02:49:00,,0830.6,5.00,0.00,22.4,22.2,00.0,31.4,24.2,07.3,0000.4,0021.56,0015.70,0014.82
2022-02-26 02:50:00,,0830.4,5.00,0.00,22.4,22.0,00.0,31.4,24.1,07.3,0000.1,0021.59,0015.83,0014.92
2022-02-26 02:51:00,,0830.5,5.00,0.00,22.4,21.9,00.0,31.4,24.1,07.4,-000.1,0022.05,0015.79,0014.89
2022-02-26 02:52:00,,0830.5,5.00,0.00,22.3,21.8,00.0,31.4,24.0,07.4,-000.1,0022.08,0015.72,0014.83
2022-02-26 02:53:00,,0830.4,4.99,0.00,22.3,21.7,00.0,31.4,24.0,07.4,-000.4,0022.15,0015.67,0014.76
2022-02-26 02:54:00,,0830.4,5.00,0.00,22.3,21.6,00.0,31.4,23.9,07.4,-000.4,0022.46,0015.61,0014.71
2022-02-26 02:55:00,,0830.4,5.00,0.00,22.2,21.5,00.0,31.4,23.9,07.4,-000.4,0022.67,0015.52,0014.66
2022-02-26 02:56:00,,0830.4,5.00,0.00,22.2,21.4,00.0,31.3,23.8,07.5,-000.2,0022.73,0015.40,0014.51
2022-02-26 02:57:00,,0830.4,5.01,0.00,22.1,21.3,00.0,31.3,23.8,07.5,-000.3,0022.77,0015.23,0014.36
2022-02-26 02:58:00,,0830.5,5.00,0.00,22.1,21.3,00.0,31.3,23.7,07.5,-000.5,0022.92,0015.16,0014.24
2022-02-26 02:59:00,,0830.5,4.99,0.00,22.0,21.2,00.0,31.3,23.7,07.5,-000.3,0022.78,0014.98,0014.08
